Manistique, MI

9:06 AM EDT on August 20, 2017 (GMT -0400)
Schoolcraft County

Weather History for KISQ - December, 2012

Change the Weather History Date:

Sunday, December 9, 2012

  Actual Average Record
Temperature  
Mean Temperature 26 °F -  
Max Temperature 30 °F 31 °F 47 °F (1952)
Min Temperature 23 °F 18 °F -6 °F (1986)
Degree Days  
Heating Degree Days 38    
Moisture  
Dew Point 21 °F    
Average Humidity 81    
Maximum Humidity 93    
Minimum Humidity 69    
Precipitation  
Precipitation 0.00 in - - ()
Sea Level Pressure  
Sea Level Pressure 30.08 in    
Wind  
Wind Speed 6 mph (NE)    
Max Wind Speed 15 mph    
Max Gust Speed 21 mph    
Visibility 7 miles    
Events Snow    
Averages and records for this station are not official NWS values.
T = Trace of Precipitation, MM = Missing Value Source: NWS Daily Summary

Daily Weather History Graph

Daily Weather History Graph

Search for Another Location

Airport or City:

Trip Planner

Search our weather history database for the weather conditions in past years. The results will help you decide how hot, cold, wet, or windy it might be!

Date:

Astronomy

Dec. 09, 2012 Rise Set
Actual Time 8:15 AM EST 4:59 PM EST
Civil Twilight 7:40 AM EST 5:33 PM EST
Nautical Twilight 7:02 AM EST 6:11 PM EST
Astronomical Twilight 6:26 AM EST 6:47 PM EST
Moon 3:37 AM EST (12/9) 2:14 PM EST (12/9)
Length of Visible Light 9h 53m
Length of Day
8h 44m
Waning Crescent, 19% of the Moon is Illuminated
Dec 9
Waning Crescent
Dec 13
New
Dec 20
First Quarter
Dec 28
Full
Jan 4
Last Quarter

Hourly Weather History & Observations

Time (EST) Temp. Windchill Dew Point Humidity Pressure Visibility Wind Dir Wind Speed Gust Speed Precip Events Conditions
12:15 AM 26.6 °F 22.6 °F 21.2 °F 80% 30.17 in 10.0 mi North 3.5 mph - N/A   Overcast
12:34 AM 26.6 °F - 19.4 °F 74% 30.18 in 10.0 mi Calm Calm - N/A   Overcast
12:55 AM 26.6 °F - 19.4 °F 74% 30.19 in 10.0 mi Calm Calm - N/A   Overcast
1:15 AM 26.6 °F - 21.2 °F 80% 30.19 in 10.0 mi Calm Calm - N/A   Overcast
1:34 AM 26.6 °F - 21.2 °F 80% 30.20 in 10.0 mi Calm Calm - N/A   Overcast
1:55 AM 26.6 °F - 21.2 °F 80% 30.21 in 10.0 mi Calm Calm - N/A   Overcast
2:14 AM 26.6 °F - 21.2 °F 80% 30.22 in 10.0 mi Calm Calm - N/A   Overcast
2:35 AM 28.4 °F 24.6 °F 19.4 °F 69% 30.22 in 10.0 mi ENE 3.5 mph - N/A   Overcast
2:55 AM 26.6 °F - 21.2 °F 80% 30.23 in 10.0 mi Calm Calm - N/A   Overcast
3:14 AM 26.6 °F 21.2 °F 21.2 °F 80% 30.22 in 10.0 mi NE 4.6 mph - N/A   Overcast
3:35 AM 26.6 °F 21.2 °F 21.2 °F 80% 30.22 in 10.0 mi NE 4.6 mph - N/A   Overcast
3:55 AM 26.6 °F 21.2 °F 21.2 °F 80% 30.22 in 10.0 mi ENE 4.6 mph - N/A   Overcast
4:14 AM 28.4 °F 24.6 °F 21.2 °F 74% 30.23 in 10.0 mi NNE 3.5 mph - N/A   Overcast
4:35 AM 26.6 °F 21.2 °F 21.2 °F 80% 30.24 in 10.0 mi North 4.6 mph - N/A   Overcast
4:54 AM 26.6 °F 20.0 °F 21.2 °F 80% 30.22 in 10.0 mi NNE 5.8 mph - N/A   Overcast
5:15 AM 26.6 °F 21.2 °F 19.4 °F 74% 30.22 in 10.0 mi NNE 4.6 mph - N/A   Overcast
5:34 AM 26.6 °F 22.6 °F 19.4 °F 74% 30.21 in 10.0 mi NNE 3.5 mph - N/A   Overcast
5:55 AM 26.6 °F 20.0 °F 21.2 °F 80% 30.20 in 10.0 mi ENE 5.8 mph - N/A   Overcast
6:15 AM 26.6 °F 19.1 °F 19.4 °F 74% 30.20 in 10.0 mi ENE 6.9 mph - N/A   Overcast
7:14 AM 26.6 °F 18.2 °F 19.4 °F 74% 30.20 in 10.0 mi NE 8.1 mph - N/A   Overcast
7:35 AM 26.6 °F 19.1 °F 19.4 °F 74% 30.21 in 10.0 mi NE 6.9 mph - N/A   Overcast
7:55 AM 26.6 °F 19.1 °F 19.4 °F 74% 30.21 in 10.0 mi NE 6.9 mph - N/A   Overcast
8:14 AM 26.6 °F 20.0 °F 19.4 °F 74% 30.21 in 10.0 mi ENE 5.8 mph - N/A   Overcast
8:35 AM 26.6 °F 19.1 °F 19.4 °F 74% 30.21 in 10.0 mi NE 6.9 mph - N/A   Overcast
8:55 AM 28.4 °F 22.2 °F 19.4 °F 69% 30.21 in 10.0 mi NE 5.8 mph - N/A   Overcast
9:14 AM 28.4 °F 22.2 °F 19.4 °F 69% 30.21 in 10.0 mi NNE 5.8 mph - N/A   Overcast
9:35 AM 28.4 °F 22.2 °F 21.2 °F 74% 30.21 in 10.0 mi NE 5.8 mph - N/A   Overcast
9:54 AM 28.4 °F 19.7 °F 21.2 °F 74% 30.21 in 10.0 mi NE 9.2 mph - N/A   Overcast
10:15 AM 28.4 °F 19.1 °F 21.2 °F 74% 30.19 in 10.0 mi ENE 10.4 mph - N/A   Overcast
10:35 AM 28.4 °F 19.1 °F 21.2 °F 74% 30.18 in 10.0 mi NE 10.4 mph - N/A   Overcast
10:54 AM 28.4 °F 19.1 °F 21.2 °F 74% 30.17 in 10.0 mi ENE 10.4 mph - N/A   Overcast
11:15 AM 28.4 °F 19.7 °F 21.2 °F 74% 30.17 in 10.0 mi ENE 9.2 mph 16.1 mph N/A   Overcast
11:34 AM 28.4 °F 19.7 °F 21.2 °F 74% 30.17 in 10.0 mi ENE 9.2 mph - N/A   Overcast
11:54 AM 28.4 °F 19.1 °F 23.0 °F 80% 30.16 in 10.0 mi NE 10.4 mph - N/A   Overcast
12:15 PM 28.4 °F 22.2 °F 24.8 °F 86% 30.14 in 10.0 mi ENE 5.8 mph - N/A   Overcast
12:34 PM 30.2 °F 22.6 °F 24.8 °F 80% 30.13 in 10.0 mi NE 8.1 mph - N/A   Overcast
12:55 PM 30.2 °F 21.3 °F 24.8 °F 80% 30.12 in 10.0 mi ENE 10.4 mph - N/A   Overcast
1:15 PM 30.2 °F 21.3 °F 26.6 °F 86% 30.10 in 10.0 mi ENE 10.4 mph - N/A   Overcast
1:34 PM 30.2 °F 20.8 °F 26.6 °F 86% 30.09 in 10.0 mi ENE 11.5 mph 17.3 mph N/A   Overcast
1:55 PM 30.2 °F 19.8 °F 26.6 °F 86% 30.08 in 7.0 mi ENE 13.8 mph - N/A Snow Light Snow
2:14 PM 30.2 °F 19.3 °F 26.6 °F 86% 30.06 in 2.5 mi ENE 15.0 mph - N/A Snow Light Snow
2:35 PM 28.4 °F 17.5 °F 24.8 °F 86% 30.06 in 2.5 mi ENE 13.8 mph 18.4 mph N/A Snow Light Snow
2:55 PM 28.4 °F 18.0 °F 24.8 °F 86% 30.05 in 4.0 mi ENE 12.7 mph 19.6 mph N/A Snow Light Snow
3:14 PM 28.4 °F 18.5 °F 24.8 °F 86% 30.04 in 4.0 mi ENE 11.5 mph - N/A Snow Light Snow
3:35 PM 28.4 °F 18.5 °F 24.8 °F 86% 30.04 in 1.2 mi ENE 11.5 mph 17.3 mph N/A Snow Light Snow
3:54 PM 28.4 °F 17.5 °F 24.8 °F 86% 30.03 in 1.0 mi ENE 13.8 mph - N/A Snow Light Snow
4:15 PM 26.6 °F 15.2 °F 24.8 °F 93% 30.02 in 1.0 mi ENE 13.8 mph 20.7 mph N/A Snow Light Snow
4:35 PM 26.6 °F 15.2 °F 24.8 °F 93% 30.01 in 1.0 mi NE 13.8 mph 17.3 mph N/A Snow Light Snow
4:54 PM 26.6 °F 16.8 °F 23.0 °F 86% 30.00 in 1.2 mi NE 10.4 mph 16.1 mph N/A Snow Light Snow
5:15 PM 26.6 °F 15.2 °F 23.0 °F 86% 29.98 in 1.5 mi ENE 13.8 mph 20.7 mph N/A Snow Light Snow
5:34 PM 24.8 °F 12.9 °F 21.2 °F 86% 29.97 in 2.0 mi ENE 13.8 mph 18.4 mph N/A Snow Light Snow
5:55 PM 24.8 °F 12.9 °F 21.2 °F 86% 29.96 in 2.0 mi ENE 13.8 mph 19.6 mph N/A Snow Light Snow
6:15 PM 24.8 °F 14.0 °F 21.2 °F 86% 29.95 in 2.0 mi NE 11.5 mph - N/A Snow Light Snow
6:34 PM 24.8 °F 13.4 °F 21.2 °F 86% 29.95 in 2.0 mi ENE 12.7 mph 18.4 mph N/A Snow Light Snow
6:55 PM 24.8 °F 15.3 °F 21.2 °F 86% 29.95 in 2.5 mi ENE 9.2 mph 17.3 mph N/A Snow Light Snow
7:14 PM 24.8 °F 16.1 °F 21.2 °F 86% 29.94 in 2.0 mi NE 8.1 mph - N/A Snow Light Snow
7:34 PM 24.8 °F 13.4 °F 21.2 °F 86% 29.93 in 3.0 mi NE 12.7 mph - N/A Snow Light Snow
7:55 PM 24.8 °F 15.3 °F 21.2 °F 86% 29.92 in 3.0 mi NE 9.2 mph - N/A Snow Light Snow
8:14 PM 24.8 °F 15.3 °F 21.2 °F 86% 29.91 in 1.8 mi NE 9.2 mph - N/A Snow Light Snow
8:35 PM 24.8 °F 15.3 °F 19.4 °F 80% 29.91 in 2.0 mi NE 9.2 mph - N/A Snow Light Snow
8:54 PM 23.0 °F 13.1 °F 19.4 °F 86% 29.91 in 2.5 mi NE 9.2 mph - N/A Snow Light Snow
9:14 PM 23.0 °F 13.9 °F 19.4 °F 86% 29.90 in 3.0 mi NNE 8.1 mph - N/A Snow Light Snow
9:35 PM 23.0 °F 13.9 °F 19.4 °F 86% 29.90 in 3.0 mi NNE 8.1 mph - N/A Snow Light Snow
9:54 PM 23.0 °F 13.1 °F 19.4 °F 86% 29.88 in 4.0 mi NE 9.2 mph - N/A Snow Light Snow
10:15 PM 23.0 °F 13.1 °F 19.4 °F 86% 29.88 in 2.5 mi NNE 9.2 mph - N/A Snow Light Snow
10:34 PM 23.0 °F 13.9 °F 19.4 °F 86% 29.86 in 2.0 mi NNE 8.1 mph - N/A Snow Light Snow
10:55 PM 23.0 °F 12.4 °F 19.4 °F 86% 29.83 in 4.0 mi NE 10.4 mph - N/A Snow Light Snow
11:14 PM 23.0 °F 12.4 °F 19.4 °F 86% 29.83 in 4.0 mi NE 10.4 mph 17.3 mph N/A Snow Light Snow
11:35 PM 23.0 °F 11.7 °F 19.4 °F 86% 29.81 in 3.0 mi NE 11.5 mph 17.3 mph N/A Snow Light Snow
11:54 PM 23.0 °F 13.1 °F 19.4 °F 86% 29.81 in 4.0 mi NNE 9.2 mph - N/A Snow Light Snow